Flag for U.S.A. Weather past 2 weeks in Butte, Montana, U.S.A.

Now
36 °F

Passing clouds.


Feels Like: 36 °F
Forecast: 27 / 48 °F
Wind: No wind

Location: Mooney Airport

Current Time: Oct 21, 2014 at 10:01:45 PM

Latest Report: Oct 21, 2014 at 8:53 PM


Visibility: 10 mi

Pressure: 30.00 "Hg

Humidity: 92%

Dew point: 34 °F

Location of ButteLocation

Historic Weather in Butte — Graph

°F

Butte temperature yesterday

Maximum temperature yesterday: 72 °F (at 3:53 PM)
Minimum temperature yesterday: 28 °F (at 6:53 AM)
Average temperature yesterday: 50 °F

Past Weeks' High & Low Weather Summary

 TemperatureHumidityPressure
High72 °F (Oct 20, 3:53 PM)100% (Oct 21, 11:53 AM)30.24 "Hg (Oct 21, 11:53 AM)
Low21 °F (Oct 17, 7:53 AM)18% (Oct 15, 1:53 PM)29.52 "Hg (Oct 15, 1:53 PM)
Average46 °F60%29.99 "Hg
* Reported Oct 6 8:53 PM — Oct 21 8:53 PM, Butte, Weather by CustomWeather, © 2014

Note: Actual official high and low records may vary slightly from our data, if they occured in-between our weather recording intervals... More about our weather records

Advertising

Butte weather history for previous 24 hours

 ConditionsComfort  
Time TempWeatherWind HumidityBarometerVisibility
8:53 PM
Oct 21
36 °FPassing clouds.No wind92%30.00 "Hg10 mi
7:53 PM38 °FPassing clouds.3 mph86%29.99 "Hg10 mi
6:53 PM39 °FScattered clouds.No wind86%29.96 "Hg10 mi
5:53 PM39 °FOvercast.3 mph86%29.96 "Hg10 mi
4:53 PM38 °FLight rain. Fog.6 mph90%29.95 "Hg6 mi
3:53 PM38 °FRain. Fog.6 mph90%29.91 "Hg4 mi
2:53 PM40 °FLight rain. Mostly cloudy.7 mph86%29.86 "Hg10 mi
1:53 PM41 °FLight rain. Overcast.12 mph89%29.81 "Hg9 mi
1:01 PM41 °FRain. Fog.6 mph86%29.85 "Hg4 mi
11:53 AM42 °FLight rain. Fog.3 mph100%29.77 "Hg5 mi
10:53 AM49 °FMostly cloudy.5 mph64%29.65 "Hg10 mi
9:53 AM58 °FSunny.3 mph50%29.61 "Hg10 mi
8:53 AM53 °FPassing clouds.10 mph59%29.62 "Hg10 mi
7:53 AM48 °FMostly cloudy.5 mph61%29.64 "Hg10 mi
6:53 AM48 °FMostly cloudy.7 mph61%29.67 "Hg10 mi
5:53 AM47 °FPassing clouds.No wind61%29.65 "Hg10 mi
4:53 AM46 °FPassing clouds.3 mph63%29.65 "Hg10 mi
3:53 AM47 °FPassing clouds.3 mph59%29.66 "Hg10 mi
2:53 AM47 °FPassing clouds.5 mph59%29.69 "Hg10 mi
1:53 AM48 °FClear.7 mph56%29.68 "Hg10 mi
12:53 AM51 °FClear.9 mph50%29.70 "Hg10 mi
11:53 PM
Oct 20
54 °FClear.10 mph43%29.72 "Hg10 mi
10:53 PM55 °FClear.3 mph42%29.75 "Hg10 mi
Weather by CustomWeather, © 2014

See weather overviewHow to use our weather pages